QPF
0.00 0.00 0.00 0.00 0.01 0.01 0.01 0.00 0.00 0.01 0.01 0.01 0.00 0.00 0.00 0.00 0.00 0.01 0.01 0.00 0.00 0.00 0.01 0.02 0.02 0.02 0.02 0.02 0.01 0.00 0.00 0.00 0.00 0.00 0.00 0.00 0.00 0.00 0.00 0.01 0.01 0.01 0.01 0.02 0.02 0.02 0.02 0.03 0.03
0.00 0.00 0.01 0.01 0.01 0.00 0.01 0.01 0.01 0.01 0.00 0.01 0.00 0.00 0.00 0.00 0.00 0.00 0.00 0.01 0.00 0.00 0.00 0.01 0.01 0.02 0.02 0.02 0.01 0.01 0.00 0.00 0.00 0.00 0.00 0.00 0.01 0.01 0.01 0.01 0.01 0.01 0.02 0.01 0.02 0.02 0.03 0.04 0.02
0.00 0.00 0.00 0.00 0.00 0.01 0.01 0.01 0.01 0.01 0.00 0.01 0.01 0.00 0.00 0.01 0.00 0.01 0.00 0.00 0.00 0.01 0.01 0.01 0.02 0.02 0.02 0.02 0.01 0.01 0.01 0.01 0.00 0.00 0.00 0.01 0.01 0.02 0.02 0.01 0.01 0.02 0.01 0.01 0.02 0.02 0.03 0.03 0.02
0.00 0.00 0.00 0.00 0.00 0.00 0.01 0.01 0.00 0.01 0.01 0.01 0.01 0.00 0.01 0.00 0.00 0.00 0.00 0.01 0.02 0.01 0.01 0.02 0.02 0.02 0.01 0.01 0.01 0.02 0.01 0.01 0.01 0.01 0.01 0.01 0.02 0.02 0.02 0.02 0.02 0.01 0.01 0.01 0.02 0.01 0.02 0.02 0.02
0.00 0.01 0.00 0.00 0.00 0.00 0.00 0.00 0.00 0.01 0.00 0.00 0.00 0.01 0.01 0.01 0.01 0.01 0.01 0.02 0.04 0.03 0.02 0.04 0.03 0.02 0.02 0.01 0.01 0.02 0.02 0.02 0.02 0.01 0.02 0.02 0.02 0.02 0.02 0.02 0.02 0.01 0.01 0.02 0.02 0.02 0.02 0.03 0.04
0.00 0.01 0.00 0.00 0.00 0.00 0.00 0.00 0.00 0.00 0.00 0.00 0.00 0.00 0.01 0.02 0.03 0.03 0.04 0.05 0.07 0.06 0.06 0.07 0.07 0.04 0.02 0.02 0.01 0.02 0.02 0.02 0.02 0.02 0.02 0.02 0.02 0.02 0.02 0.02 0.02 0.02 0.01 0.02 0.02 0.02 0.03 0.04 0.07
0.00 0.00 0.00 0.00 0.00 0.00 0.00 0.00 0.00 0.00 0.00 0.00 0.00 0.00 0.01 0.02 0.04 0.06 0.09 0.05 0.07 0.07 0.07 0.08 0.10 0.09 0.05 0.03 0.03 0.02 0.02 0.03 0.02 0.02 0.01 0.02 0.01 0.01 0.02 0.02 0.02 0.02 0.01 0.02 0.02 0.02 0.03 0.04 0.07
0.00 0.00 0.00 0.00 0.00 0.00 0.00 0.00 0.00 0.00 0.00 0.00 0.00 0.00 0.01 0.04 0.10 0.11 0.12 0.06 0.06 0.06 0.06 0.07 0.08 0.09 0.08 0.06 0.05 0.04 0.03 0.03 0.02 0.02 0.01 0.02 0.02 0.02 0.02 0.02 0.02 0.02 0.01 0.01 0.01 0.02 0.02 0.04 0.05
0.00 0.00 0.00 0.00 0.00 0.00 0.00 0.00 0.00 0.00 0.00 0.00 0.00 0.00 0.01 0.05 0.11 0.10 0.11 0.11 0.11 0.08 0.07 0.06 0.06 0.06 0.06 0.05 0.05 0.05 0.05 0.04 0.03 0.03 0.03 0.02 0.01 0.01 0.01 0.01 0.02 0.01 0.01 0.01 0.01 0.02 0.03 0.03 0.03
0.00 0.00 0.00 0.00 0.00 0.00 0.00 0.00 0.00 0.00 0.00 0.00 0.00 0.00 0.01 0.03 0.07 0.09 0.08 0.09 0.15 0.12 0.07 0.05 0.05 0.04 0.04 0.04 0.03 0.04 0.05 0.03 0.02 0.02 0.02 0.01 0.00 0.00 0.01 0.02 0.04 0.02 0.01 0.01 0.02 0.03 0.02 0.02 0.01
0.00 0.00 0.00 0.00 0.00 0.00 0.00 0.00 0.00 0.00 0.00 0.00 0.00 0.00 0.01 0.01 0.03 0.05 0.07 0.07 0.13 0.14 0.09 0.07 0.06 0.04 0.05 0.04 0.03 0.04 0.04 0.03 0.02 0.02 0.01 0.00 0.00 0.00 0.01 0.01 0.03 0.02 0.01 0.01 0.01 0.01 0.01 0.01 0.01
0.00 0.00 0.00 0.00 0.00 0.00 0.00 0.00 0.00 0.00 0.00 0.00 0.00 0.00 0.01 0.01 0.02 0.04 0.08 0.12 0.12 0.15 0.12 0.07 0.07 0.05 0.04 0.05 0.05 0.05 0.05 0.04 0.02 0.01 0.01 0.01 0.00 0.01 0.00 0.01 0.00 0.00 0.00 0.00 0.00 0.01 0.01 0.01 0.01
0.00 0.00 0.00 0.00 0.00 0.00 0.00 0.00 0.00 0.00 0.00 0.00 0.00 0.01 0.01 0.02 0.03 0.04 0.08 0.15 0.16 0.16 0.14 0.11 0.08 0.05 0.04 0.04 0.05 0.04 0.03 0.03 0.03 0.02 0.02 0.02 0.01 0.01 0.01 0.01 0.01 0.00 0.00 0.00 0.00 0.00 0.01 0.02 0.02
0.00 0.00 0.00 0.00 0.00 0.00 0.00 0.00 0.00 0.00 0.00 0.01 0.01 0.01 0.01 0.04 0.04 0.06 0.09 0.13 0.24 0.24 0.19 0.16 0.11 0.08 0.07 0.06 0.05 0.04 0.03 0.03 0.02 0.02 0.03 0.03 0.02 0.02 0.01 0.01 0.01 0.01 0.01 0.01 0.00 0.01 0.01 0.02 0.02
0.00 0.00 0.00 0.00 0.00 0.00 0.00 0.00 0.00 0.01 0.01 0.01 0.01 0.01 0.02 0.05 0.07 0.09 0.11 0.14 0.28 0.35 0.25 0.22 0.17 0.15 0.14 0.11 0.08 0.07 0.05 0.04 0.04 0.02 0.03 0.04 0.03 0.02 0.02 0.01 0.01 0.01 0.01 0.01 0.01 0.02 0.01 0.01 0.02
0.00 0.00 0.00 0.00 0.00 0.00 0.00 0.00 0.00 0.00 0.00 0.01 0.01 0.02 0.04 0.06 0.07 0.11 0.15 0.18 0.30 0.41 0.31 0.29 0.20 0.18 0.16 0.11 0.07 0.05 0.05 0.05 0.05 0.03 0.03 0.03 0.04 0.03 0.02 0.01 0.01 0.00 0.01 0.01 0.02 0.02 0.02 0.02 0.02
0.00 0.00 0.00 0.00 0.00 0.00 0.00 0.00 0.00 0.01 0.01 0.01 0.02 0.03 0.04 0.08 0.11 0.14 0.15 0.17 0.25 0.28 0.26 0.27 0.20 0.18 0.17 0.13 0.11 0.08 0.07 0.08 0.06 0.04 0.04 0.03 0.04 0.03 0.02 0.01 0.00 0.01 0.01 0.01 0.01 0.01 0.02 0.01 0.02
0.00 0.00 0.00 0.00 0.00 0.00 0.00 0.00 0.00 0.00 0.01 0.02 0.03 0.02 0.04 0.06 0.11 0.13 0.15 0.18 0.19 0.21 0.21 0.22 0.21 0.17 0.15 0.16 0.15 0.12 0.10 0.11 0.08 0.06 0.04 0.03 0.03 0.02 0.01 0.01 0.01 0.01 0.02 0.03 0.02 0.02 0.02 0.02 0.02
0.00 0.00 0.00 0.00 0.00 0.00 0.00 0.00 0.00 0.00 0.01 0.02 0.03 0.02 0.03 0.03 0.05 0.09 0.14 0.19 0.21 0.20 0.19 0.17 0.17 0.15 0.18 0.17 0.16 0.13 0.13 0.15 0.13 0.09 0.07 0.06 0.04 0.02 0.02 0.02 0.02 0.02 0.02 0.02 0.03 0.02 0.02 0.02 0.02
0.00 0.00 0.00 0.00 0.00 0.00 0.00 0.00 0.00 0.00 0.01 0.01 0.01 0.01 0.01 0.03 0.05 0.09 0.12 0.14 0.13 0.16 0.17 0.19 0.18 0.19 0.19 0.20 0.21 0.22 0.21 0.16 0.15 0.14 0.11 0.09 0.07 0.04 0.03 0.03 0.04 0.03 0.03 0.03 0.03 0.02 0.01 0.02 0.02
0.00 0.00 0.00 0.00 0.00 0.00 0.00 0.00 0.00 0.00 0.00 0.01 0.00 0.00 0.01 0.04 0.06 0.06 0.08 0.13 0.11 0.12 0.14 0.17 0.21 0.24 0.25 0.25 0.23 0.19 0.19 0.17 0.15 0.12 0.07 0.06 0.06 0.05 0.03 0.02 0.03 0.03 0.02 0.02 0.01 0.01 0.01 0.02 0.02
0.00 0.00 0.00 0.00 0.00 0.00 0.00 0.00 0.00 0.00 0.00 0.01 0.01 0.00 0.03 0.06 0.04 0.06 0.08 0.09 0.10 0.11 0.13 0.14 0.15 0.20 0.25 0.21 0.15 0.09 0.08 0.07 0.06 0.07 0.05 0.04 0.04 0.04 0.04 0.02 0.02 0.02 0.02 0.01 0.01 0.01 0.01 0.01 0.01
0.00 0.00 0.00 0.00 0.00 0.00 0.00 0.00 0.00 0.00 0.00 0.00 0.00 0.01 0.03 0.04 0.03 0.05 0.06 0.07 0.10 0.12 0.15 0.15 0.13 0.12 0.15 0.17 0.13 0.08 0.06 0.06 0.07 0.08 0.08 0.07 0.05 0.03 0.03 0.02 0.02 0.02 0.02 0.01 0.01 0.00 0.01 0.01 0.01
0.00 0.00 0.00 0.00 0.00 0.00 0.00 0.00 0.00 0.00 0.00 0.00 0.01 0.00 0.01 0.02 0.03 0.04 0.06 0.07 0.08 0.10 0.12 0.11 0.10 0.09 0.12 0.14 0.09 0.06 0.06 0.06 0.05 0.05 0.04 0.05 0.04 0.03 0.02 0.03 0.03 0.02 0.02 0.01 0.01 0.01 0.01 0.01 0.01
0.00 0.00 0.00 0.00 0.00 0.00 0.00 0.00 0.00 0.00 0.00 0.00 0.00 0.00 0.01 0.02 0.03 0.04 0.05 0.05 0.06 0.06 0.06 0.08 0.08 0.08 0.10 0.10 0.07 0.05 0.04 0.04 0.03 0.03 0.03 0.03 0.03 0.03 0.02 0.02 0.02 0.02 0.01 0.01 0.01 0.01 0.01 0.01 0.01
0.00 0.00 0.00 0.00 0.00 0.00 0.00 0.00 0.00 0.00 0.00 0.00 0.00 0.00 0.01 0.02 0.03 0.04 0.04 0.04 0.04 0.04 0.03 0.04 0.04 0.04 0.05 0.06 0.06 0.05 0.04 0.03 0.03 0.03 0.02 0.03 0.02 0.02 0.02 0.02 0.02 0.02 0.02 0.02 0.02 0.01 0.01 0.01 0.01
0.00 0.00 0.00 0.00 0.00 0.00 0.00 0.00 0.00 0.00 0.00 0.00 0.00 0.01 0.01 0.02 0.04 0.04 0.03 0.03 0.04 0.04 0.03 0.03 0.04 0.04 0.04 0.04 0.04 0.04 0.04 0.03 0.03 0.03 0.02 0.03 0.03 0.04 0.03 0.03 0.02 0.03 0.03 0.03 0.02 0.01 0.01 0.01 0.01
0.00 0.00 0.00 0.00 0.00 0.00 0.00 0.00 0.00 0.00 0.00 0.00 0.00 0.01 0.02 0.03 0.03 0.03 0.03 0.02 0.03 0.04 0.03 0.03 0.03 0.02 0.03 0.03 0.04 0.05 0.05 0.04 0.04 0.04 0.03 0.04 0.04 0.04 0.03 0.04 0.04 0.04 0.04 0.03 0.03 0.03 0.02 0.02 0.01
0.00 0.00 0.00 0.00 0.00 0.00 0.00 0.00 0.00 0.00 0.00 0.00 0.01 0.01 0.02 0.03 0.04 0.02 0.02 0.04 0.04 0.03 0.03 0.03 0.03 0.02 0.02 0.03 0.05 0.06 0.06 0.04 0.04 0.03 0.03 0.05 0.06 0.07 0.07 0.06 0.07 0.05 0.04 0.03 0.04 0.03 0.03 0.02 0.02
0.00 0.00 0.00 0.00 0.00 0.00 0.00 0.00 0.00 0.00 0.00 0.00 0.01 0.01 0.02 0.02 0.02 0.02 0.03 0.04 0.05 0.04 0.04 0.04 0.05 0.04 0.03 0.04 0.05 0.07 0.07 0.05 0.05 0.04 0.04 0.06 0.07 0.11 0.12 0.09 0.08 0.06 0.03 0.03 0.04 0.03 0.03 0.03 0.03
MSLP
1008.81 1009.85 1010.94 1011.87 1012.49 1012.70 1012.49 1011.95 1011.25 1010.55 1010.02 1009.76 1009.78 1010.03 1010.38 1010.71 1010.91 1010.92 1010.76 1010.49 1010.23 1010.06 1010.08 1010.32 1010.74 1011.28 1011.83 1012.32 1012.68 1012.90 1012.99 1013.02 1013.05 1013.14 1013.33 1013.60 1013.92 1014.27 1014.57 1014.80 1014.93 1014.99 1014.98 1014.95 1014.94 1014.95 1015.02 1015.12 1015.25
1009.13 1010.32 1011.49 1012.41 1012.92 1012.95 1012.53 1011.75 1010.81 1009.90 1009.21 1008.83 1008.77 1008.98 1009.34 1009.72 1009.99 1010.10 1010.06 1009.92 1009.79 1009.76 1009.89 1010.22 1010.72 1011.32 1011.92 1012.44 1012.83 1013.08 1013.22 1013.28 1013.34 1013.45 1013.63 1013.88 1014.17 1014.46 1014.71 1014.90 1015.01 1015.06 1015.07 1015.07 1015.10 1015.15 1015.25 1015.37 1015.52
1009.62 1010.91 1012.08 1012.92 1013.29 1013.13 1012.49 1011.51 1010.40 1009.36 1008.57 1008.13 1008.05 1008.26 1008.63 1009.04 1009.36 1009.54 1009.59 1009.55 1009.53 1009.60 1009.83 1010.24 1010.79 1011.42 1012.04 1012.58 1013.00 1013.27 1013.43 1013.53 1013.61 1013.73 1013.89 1014.11 1014.35 1014.58 1014.78 1014.92 1015.01 1015.07 1015.11 1015.17 1015.25 1015.37 1015.51 1015.67 1015.83
1010.27 1011.57 1012.67 1013.36 1013.55 1013.20 1012.38 1011.27 1010.07 1008.98 1008.19 1007.76 1007.70 1007.92 1008.31 1008.73 1009.08 1009.30 1009.39 1009.42 1009.47 1009.62 1009.91 1010.36 1010.94 1011.58 1012.19 1012.73 1013.15 1013.43 1013.62 1013.74 1013.84 1013.97 1014.12 1014.31 1014.50 1014.68 1014.82 1014.93 1015.02 1015.10 1015.19 1015.30 1015.46 1015.63 1015.83 1016.02 1016.21
1011.01 1012.23 1013.18 1013.68 1013.66 1013.12 1012.18 1011.01 1009.80 1008.77 1008.05 1007.70 1007.70 1007.96 1008.37 1008.78 1009.12 1009.34 1009.45 1009.51 1009.60 1009.78 1010.11 1010.57 1011.15 1011.77 1012.36 1012.87 1013.27 1013.55 1013.75 1013.90 1014.03 1014.17 1014.33 1014.50 1014.66 1014.80 1014.92 1015.01 1015.10 1015.20 1015.34 1015.53 1015.74 1015.98 1016.23 1016.45 1016.65
1011.72 1012.79 1013.52 1013.78 1013.54 1012.86 1011.84 1010.68 1009.56 1008.66 1008.08 1007.86 1007.96 1008.27 1008.68 1009.07 1009.38 1009.56 1009.66 1009.73 1009.83 1010.04 1010.37 1010.84 1011.39 1011.96 1012.51 1012.97 1013.34 1013.62 1013.83 1014.00 1014.17 1014.35 1014.53 1014.72 1014.88 1015.01 1015.11 1015.20 1015.30 1015.43 1015.61 1015.84 1016.11 1016.40 1016.67 1016.91 1017.10
1012.28 1013.13 1013.59 1013.60 1013.16 1012.35 1011.32 1010.23 1009.26 1008.55 1008.17 1008.10 1008.30 1008.66 1009.07 1009.43 1009.68 1009.83 1009.90 1009.96 1010.08 1010.31 1010.65 1011.11 1011.62 1012.15 1012.64 1013.05 1013.38 1013.64 1013.86 1014.07 1014.29 1014.52 1014.76 1014.98 1015.16 1015.30 1015.41 1015.50 1015.61 1015.76 1015.96 1016.22 1016.52 1016.82 1017.10 1017.34 1017.52
1012.59 1013.18 1013.36 1013.12 1012.50 1011.62 1010.61 1009.65 1008.86 1008.37 1008.18 1008.27 1008.57 1008.97 1009.36 1009.68 1009.89 1010.00 1010.06 1010.14 1010.28 1010.54 1010.90 1011.36 1011.85 1012.33 1012.75 1013.11 1013.40 1013.64 1013.88 1014.13 1014.40 1014.70 1015.00 1015.27 1015.50 1015.67 1015.79 1015.88 1015.99 1016.14 1016.34 1016.60 1016.90 1017.20 1017.47 1017.68 1017.84
1012.60 1012.92 1012.83 1012.38 1011.62 1010.71 1009.76 1008.94 1008.35 1008.06 1008.05 1008.28 1008.65 1009.06 1009.44 1009.72 1009.89 1009.99 1010.07 1010.19 1010.40 1010.71 1011.12 1011.59 1012.07 1012.51 1012.89 1013.19 1013.44 1013.67 1013.91 1014.19 1014.52 1014.88 1015.25 1015.58 1015.86 1016.06 1016.19 1016.29 1016.38 1016.51 1016.69 1016.92 1017.19 1017.47 1017.71 1017.91 1018.04
1012.34 1012.41 1012.11 1011.48 1010.65 1009.73 1008.87 1008.19 1007.77 1007.64 1007.77 1008.08 1008.48 1008.89 1009.24 1009.50 1009.67 1009.79 1009.92 1010.13 1010.42 1010.82 1011.30 1011.81 1012.30 1012.72 1013.06 1013.32 1013.53 1013.74 1013.98 1014.28 1014.65 1015.07 1015.49 1015.88 1016.19 1016.42 1016.56 1016.65 1016.73 1016.82 1016.96 1017.15 1017.38 1017.62 1017.84 1018.01 1018.12
1011.92 1011.80 1011.33 1010.60 1009.72 1008.84 1008.06 1007.50 1007.21 1007.18 1007.38 1007.72 1008.12 1008.50 1008.82 1009.06 1009.25 1009.43 1009.66 1009.97 1010.39 1010.90 1011.47 1012.04 1012.55 1012.97 1013.28 1013.51 1013.69 1013.87 1014.10 1014.41 1014.80 1015.24 1015.70 1016.12 1016.46 1016.70 1016.85 1016.93 1016.98 1017.04 1017.14 1017.28 1017.47 1017.67 1017.86 1018.02 1018.14
1011.47 1011.22 1010.65 1009.88 1009.01 1008.17 1007.48 1007.00 1006.77 1006.78 1006.98 1007.29 1007.63 1007.97 1008.26 1008.50 1008.73 1008.99 1009.33 1009.78 1010.33 1010.95 1011.61 1012.24 1012.79 1013.21 1013.52 1013.73 1013.89 1014.05 1014.27 1014.57 1014.95 1015.40 1015.86 1016.28 1016.64 1016.89 1017.04 1017.12 1017.15 1017.18 1017.24 1017.35 1017.50 1017.68 1017.86 1018.02 1018.15
1011.14 1010.82 1010.22 1009.45 1008.62 1007.84 1007.21 1006.77 1006.55 1006.53 1006.66 1006.89 1007.15 1007.41 1007.67 1007.92 1008.21 1008.56 1009.02 1009.58 1010.25 1010.98 1011.71 1012.39 1012.97 1013.41 1013.73 1013.94 1014.09 1014.25 1014.45 1014.73 1015.09 1015.51 1015.96 1016.37 1016.72 1016.97 1017.13 1017.21 1017.25 1017.27 1017.31 1017.40 1017.53 1017.70 1017.88 1018.06 1018.22
1011.03 1010.69 1010.10 1009.38 1008.62 1007.90 1007.30 1006.86 1006.59 1006.48 1006.50 1006.60 1006.76 1006.95 1007.17 1007.43 1007.77 1008.21 1008.75 1009.41 1010.15 1010.93 1011.70 1012.41 1013.01 1013.48 1013.82 1014.06 1014.23 1014.40 1014.61 1014.87 1015.20 1015.59 1015.99 1016.38 1016.71 1016.96 1017.14 1017.24 1017.29 1017.34 1017.39 1017.49 1017.62 1017.79 1017.99 1018.19 1018.38
1011.15 1010.82 1010.28 1009.63 1008.94 1008.28 1007.70 1007.22 1006.87 1006.64 1006.51 1006.47 1006.50 1006.61 1006.80 1007.08 1007.45 1007.94 1008.54 1009.23 1009.99 1010.77 1011.54 1012.24 1012.85 1013.34 1013.72 1014.02 1014.25 1014.47 1014.70 1014.96 1015.27 1015.61 1015.97 1016.32 1016.63 1016.89 1017.08 1017.22 1017.33 1017.41 1017.51 1017.62 1017.78 1017.96 1018.17 1018.40 1018.63
1011.43 1011.13 1010.67 1010.11 1009.50 1008.89 1008.32 1007.79 1007.33 1006.95 1006.67 1006.48 1006.40 1006.43 1006.58 1006.86 1007.26 1007.77 1008.37 1009.04 1009.75 1010.47 1011.18 1011.84 1012.43 1012.95 1013.40 1013.78 1014.11 1014.41 1014.69 1014.98 1015.28 1015.59 1015.90 1016.21 1016.50 1016.76 1016.99 1017.18 1017.34 1017.50 1017.65 1017.81 1017.99 1018.19 1018.42 1018.67 1018.92
1011.76 1011.51 1011.13 1010.68 1010.17 1009.61 1009.04 1008.45 1007.88 1007.36 1006.92 1006.59 1006.39 1006.36 1006.48 1006.75 1007.15 1007.64 1008.21 1008.80 1009.42 1010.03 1010.63 1011.22 1011.79 1012.33 1012.85 1013.34 1013.80 1014.22 1014.59 1014.93 1015.24 1015.53 1015.81 1016.08 1016.34 1016.60 1016.86 1017.11 1017.34 1017.57 1017.78 1018.00 1018.21 1018.44 1018.68 1018.93 1019.20
1012.01 1011.82 1011.56 1011.23 1010.83 1010.34 1009.77 1009.14 1008.46 1007.80 1007.21 1006.75 1006.46 1006.36 1006.45 1006.71 1007.10 1007.56 1008.05 1008.54 1009.01 1009.48 1009.95 1010.44 1010.97 1011.54 1012.14 1012.76 1013.36 1013.92 1014.41 1014.83 1015.17 1015.45 1015.69 1015.92 1016.16 1016.42 1016.70 1017.00 1017.30 1017.60 1017.88 1018.15 1018.40 1018.64 1018.89 1019.14 1019.41
1012.09 1012.01 1011.88 1011.70 1011.43 1011.03 1010.48 1009.80 1009.03 1008.24 1007.51 1006.93 1006.54 1006.39 1006.46 1006.70 1007.07 1007.49 1007.90 1008.27 1008.60 1008.91 1009.23 1009.62 1010.10 1010.69 1011.37 1012.11 1012.86 1013.56 1014.18 1014.68 1015.06 1015.35 1015.57 1015.76 1015.97 1016.22 1016.52 1016.85 1017.21 1017.58 1017.92 1018.22 1018.50 1018.76 1019.01 1019.26 1019.53
1011.99 1012.04 1012.09 1012.09 1011.97 1011.67 1011.16 1010.45 1009.59 1008.68 1007.82 1007.11 1006.64 1006.43 1006.47 1006.71 1007.07 1007.45 1007.80 1008.06 1008.26 1008.42 1008.60 1008.88 1009.31 1009.89 1010.63 1011.48 1012.35 1013.19 1013.93 1014.51 1014.94 1015.23 1015.43 1015.60 1015.78 1016.01 1016.31 1016.67 1017.08 1017.48 1017.87 1018.22 1018.52 1018.78 1019.03 1019.28 1019.55
1011.74 1011.98 1012.24 1012.45 1012.50 1012.32 1011.86 1011.12 1010.18 1009.14 1008.14 1007.31 1006.74 1006.48 1006.50 1006.73 1007.09 1007.47 1007.77 1007.97 1008.07 1008.11 1008.17 1008.35 1008.71 1009.27 1010.03 1010.94 1011.91 1012.84 1013.67 1014.32 1014.79 1015.10 1015.29 1015.44 1015.59 1015.81 1016.10 1016.48 1016.90 1017.34 1017.76 1018.13 1018.45 1018.73 1018.98 1019.23 1019.50
1011.45 1011.90 1012.40 1012.83 1013.07 1013.01 1012.59 1011.83 1010.80 1009.63 1008.49 1007.53 1006.86 1006.54 1006.53 1006.77 1007.15 1007.54 1007.85 1008.02 1008.06 1008.03 1008.00 1008.08 1008.36 1008.87 1009.61 1010.52 1011.52 1012.51 1013.39 1014.09 1014.60 1014.93 1015.13 1015.27 1015.41 1015.62 1015.91 1016.29 1016.72 1017.18 1017.61 1018.00 1018.34 1018.62 1018.88 1019.13 1019.41
1011.20 1011.88 1012.62 1013.28 1013.70 1013.74 1013.37 1012.57 1011.44 1010.15 1008.86 1007.77 1007.00 1006.60 1006.57 1006.83 1007.24 1007.68 1008.03 1008.22 1008.25 1008.17 1008.08 1008.07 1008.26 1008.68 1009.35 1010.21 1011.19 1012.17 1013.06 1013.79 1014.33 1014.69 1014.92 1015.07 1015.23 1015.45 1015.75 1016.13 1016.57 1017.03 1017.47 1017.87 1018.21 1018.50 1018.76 1019.03 1019.31
1011.04 1011.95 1012.91 1013.77 1014.33 1014.47 1014.12 1013.28 1012.06 1010.64 1009.23 1008.01 1007.13 1006.67 1006.62 1006.89 1007.35 1007.86 1008.27 1008.51 1008.56 1008.48 1008.34 1008.25 1008.33 1008.64 1009.19 1009.95 1010.84 1011.77 1012.64 1013.38 1013.95 1014.35 1014.63 1014.84 1015.05 1015.30 1015.62 1016.01 1016.46 1016.92 1017.36 1017.76 1018.10 1018.39 1018.66 1018.92 1019.22
1010.97 1012.07 1013.21 1014.22 1014.89 1015.08 1014.73 1013.86 1012.57 1011.04 1009.52 1008.20 1007.24 1006.73 1006.65 1006.94 1007.46 1008.03 1008.51 1008.82 1008.92 1008.84 1008.67 1008.51 1008.48 1008.65 1009.04 1009.66 1010.43 1011.27 1012.10 1012.83 1013.44 1013.91 1014.26 1014.56 1014.84 1015.15 1015.51 1015.93 1016.39 1016.85 1017.28 1017.67 1018.00 1018.29 1018.55 1018.82 1019.11
1010.95 1012.17 1013.42 1014.51 1015.23 1015.45 1015.10 1014.20 1012.86 1011.28 1009.69 1008.30 1007.30 1006.75 1006.67 1006.98 1007.53 1008.16 1008.72 1009.09 1009.24 1009.18 1008.98 1008.75 1008.61 1008.63 1008.86 1009.31 1009.93 1010.66 1011.43 1012.15 1012.80 1013.34 1013.80 1014.21 1014.59 1014.99 1015.42 1015.87 1016.34 1016.80 1017.23 1017.60 1017.92 1018.20 1018.45 1018.71 1018.99
1010.89 1012.15 1013.44 1014.53 1015.26 1015.47 1015.11 1014.20 1012.86 1011.28 1009.69 1008.31 1007.30 1006.75 1006.67 1006.99 1007.57 1008.24 1008.84 1009.27 1009.46 1009.41 1009.20 1008.91 1008.65 1008.53 1008.60 1008.88 1009.36 1009.97 1010.67 1011.38 1012.07 1012.70 1013.27 1013.80 1014.30 1014.81 1015.31 1015.81 1016.30 1016.76 1017.18 1017.53 1017.83 1018.09 1018.33 1018.58 1018.85
1010.72 1011.96 1013.19 1014.23 1014.91 1015.09 1014.73 1013.85 1012.57 1011.06 1009.54 1008.22 1007.26 1006.74 1006.68 1007.00 1007.58 1008.26 1008.88 1009.33 1009.54 1009.51 1009.29 1008.95 1008.62 1008.38 1008.31 1008.44 1008.77 1009.27 1009.90 1010.60 1011.32 1012.03 1012.71 1013.36 1013.99 1014.59 1015.17 1015.73 1016.24 1016.70 1017.11 1017.45 1017.74 1017.98 1018.21 1018.44 1018.68
1010.44 1011.57 1012.68 1013.60 1014.19 1014.34 1013.99 1013.18 1012.01 1010.64 1009.28 1008.09 1007.23 1006.77 1006.73 1007.05 1007.61 1008.26 1008.86 1009.31 1009.52 1009.50 1009.27 1008.92 1008.54 1008.22 1008.05 1008.06 1008.28 1008.68 1009.24 1009.91 1010.65 1011.42 1012.19 1012.94 1013.67 1014.36 1015.01 1015.61 1016.15 1016.62 1017.02 1017.35 1017.63 1017.87 1018.09 1018.31 1018.54
1010.08 1011.05 1011.99 1012.76 1013.23 1013.33 1013.02 1012.31 1011.31 1010.14 1008.98 1007.98 1007.25 1006.88 1006.86 1007.16 1007.67 1008.26 1008.82 1009.23 1009.44 1009.42 1009.21 1008.87 1008.49 1008.14 1007.91 1007.85 1007.98 1008.30 1008.79 1009.43 1010.16 1010.95 1011.77 1012.59 1013.39 1014.15 1014.85 1015.48 1016.03 1016.51 1016.92 1017.25 1017.54 1017.79 1018.01 1018.23 1018.46
Thickness
5805 5803 5799 5789 5771 5755 5756 5770 5781 5784 5788 5798 5799 5793 5784 5778 5770 5767 5788 5795 5792 5787 5782 5778 5774 5772 5770 5768 5767 5766 5765 5765 5764 5763 5762 5761 5760 5759 5758 5757 5756 5755 5753 5752 5751 5750 5749 5747 5746
5806 5802 5793 5780 5759 5744 5756 5777 5781 5788 5797 5802 5800 5795 5787 5784 5789 5786 5788 5792 5791 5786 5781 5777 5773 5770 5768 5766 5765 5764 5763 5762 5762 5761 5760 5759 5758 5757 5756 5755 5754 5753 5751 5750 5749 5748 5746 5745 5744
5807 5803 5784 5770 5758 5752 5763 5783 5788 5797 5804 5802 5795 5796 5790 5785 5789 5788 5792 5792 5789 5784 5780 5776 5772 5768 5766 5764 5762 5761 5760 5759 5759 5758 5758 5757 5756 5755 5754 5753 5752 5751 5749 5748 5747 5746 5744 5743 5741
5803 5791 5780 5764 5761 5770 5780 5791 5796 5796 5800 5803 5796 5787 5792 5797 5795 5794 5794 5790 5785 5780 5777 5774 5770 5767 5764 5762 5760 5759 5758 5757 5756 5756 5755 5754 5753 5752 5752 5750 5749 5748 5747 5746 5744 5743 5742 5740 5739
5799 5781 5765 5755 5763 5779 5793 5801 5801 5794 5795 5798 5794 5784 5785 5795 5799 5796 5792 5787 5782 5777 5774 5771 5767 5764 5761 5759 5758 5756 5755 5754 5753 5753 5752 5752 5751 5750 5749 5748 5747 5746 5745 5744 5742 5741 5739 5738 5736
5784 5773 5754 5750 5765 5786 5799 5807 5804 5798 5796 5798 5792 5783 5782 5792 5792 5790 5788 5784 5780 5775 5771 5768 5764 5762 5759 5757 5755 5754 5752 5752 5751 5750 5750 5749 5748 5748 5747 5746 5745 5744 5743 5741 5740 5738 5737 5735 5734
5778 5765 5756 5760 5764 5780 5800 5810 5804 5798 5795 5797 5798 5782 5781 5786 5789 5788 5784 5780 5776 5772 5768 5765 5761 5759 5756 5754 5753 5752 5750 5749 5748 5748 5747 5747 5746 5745 5745 5743 5742 5742 5741 5739 5737 5736 5735 5733 5732
5787 5767 5761 5760 5767 5779 5802 5809 5809 5803 5799 5807 5803 5785 5779 5785 5787 5784 5779 5775 5771 5768 5765 5762 5759 5756 5754 5752 5750 5749 5748 5747 5746 5746 5745 5745 5744 5743 5742 5741 5740 5739 5738 5737 5735 5733 5732 5731 5730
5790 5761 5753 5765 5774 5786 5803 5803 5808 5812 5804 5802 5801 5797 5795 5791 5785 5778 5771 5767 5764 5762 5761 5759 5756 5753 5751 5750 5748 5747 5746 5745 5744 5744 5743 5742 5741 5741 5740 5739 5738 5738 5736 5735 5733 5732 5730 5730 5729
5779 5756 5766 5784 5792 5796 5804 5804 5805 5802 5795 5793 5794 5795 5795 5788 5781 5774 5768 5763 5759 5756 5755 5755 5753 5750 5748 5747 5746 5744 5743 5742 5742 5741 5741 5739 5738 5738 5737 5737 5736 5736 5734 5733 5731 5730 5729 5728 5727
5779 5770 5783 5795 5803 5804 5803 5805 5809 5799 5789 5794 5793 5790 5788 5783 5777 5772 5767 5763 5759 5755 5752 5750 5748 5746 5745 5744 5743 5741 5740 5739 5738 5738 5738 5737 5736 5735 5734 5734 5734 5733 5732 5731 5729 5728 5727 5726 5725
5781 5786 5793 5800 5808 5806 5805 5806 5803 5800 5801 5810 5805 5796 5789 5781 5775 5771 5765 5760 5756 5751 5749 5746 5745 5743 5742 5741 5739 5737 5736 5736 5736 5736 5735 5735 5734 5733 5732 5732 5732 5731 5730 5729 5727 5726 5725 5725 5724
5785 5790 5799 5804 5806 5806 5807 5803 5801 5800 5808 5810 5803 5794 5787 5781 5775 5771 5765 5759 5753 5748 5745 5743 5740 5739 5738 5736 5736 5734 5733 5733 5733 5733 5733 5733 5732 5731 5730 5730 5729 5729 5728 5727 5726 5725 5724 5724 5723
5792 5794 5797 5802 5805 5808 5803 5801 5798 5798 5804 5801 5796 5790 5786 5780 5774 5767 5761 5756 5752 5749 5745 5742 5737 5736 5734 5733 5732 5732 5731 5731 5731 5731 5732 5731 5731 5730 5729 5728 5728 5727 5727 5726 5726 5724 5723 5723 5722
5793 5787 5789 5798 5802 5803 5801 5789 5792 5799 5800 5794 5790 5787 5783 5778 5773 5767 5763 5758 5753 5748 5744 5739 5735 5733 5732 5730 5729 5729 5729 5729 5729 5730 5730 5730 5729 5728 5728 5727 5727 5726 5726 5725 5725 5723 5722 5722 5721
5784 5773 5767 5785 5796 5800 5791 5774 5791 5798 5795 5787 5785 5783 5779 5775 5772 5766 5761 5756 5752 5746 5741 5738 5735 5732 5730 5728 5728 5727 5727 5728 5727 5728 5728 5728 5728 5727 5727 5726 5726 5726 5725 5725 5723 5722 5721 5720 5719
5759 5752 5758 5772 5790 5792 5783 5773 5788 5794 5791 5784 5782 5780 5777 5772 5767 5763 5758 5754 5750 5746 5741 5737 5735 5732 5729 5728 5726 5725 5725 5725 5726 5726 5726 5727 5727 5726 5726 5726 5725 5725 5724 5724 5723 5721 5720 5718 5717
5747 5751 5755 5760 5779 5781 5774 5773 5783 5788 5786 5781 5778 5776 5773 5769 5766 5763 5759 5754 5748 5745 5741 5737 5733 5731 5728 5726 5724 5723 5722 5723 5724 5725 5726 5726 5726 5725 5725 5725 5724 5724 5724 5722 5722 5720 5719 5717 5716
5759 5754 5750 5762 5778 5773 5769 5770 5777 5781 5780 5777 5773 5771 5770 5768 5766 5762 5757 5753 5747 5743 5739 5736 5733 5730 5727 5724 5722 5720 5719 5721 5722 5723 5724 5725 5725 5725 5725 5724 5724 5724 5723 5722 5721 5720 5717 5716 5715
5756 5749 5749 5762 5775 5771 5764 5765 5775 5777 5777 5776 5773 5770 5769 5765 5761 5758 5755 5751 5747 5743 5740 5736 5734 5731 5728 5726 5724 5722 5721 5721 5721 5722 5722 5723 5724 5724 5724 5724 5723 5723 5722 5721 5720 5719 5716 5715 5715
5752 5748 5751 5754 5763 5765 5761 5755 5765 5773 5776 5777 5775 5772 5768 5765 5760 5757 5754 5750 5747 5744 5742 5739 5735 5732 5730 5727 5724 5722 5720 5719 5718 5719 5721 5722 5723 5724 5724 5724 5724 5723 5722 5720 5720 5720 5718 5714 5714
5743 5760 5759 5756 5745 5736 5747 5727 5752 5762 5765 5770 5770 5768 5766 5764 5761 5758 5755 5751 5749 5746 5744 5740 5737 5733 5730 5727 5725 5723 5720 5717 5719 5720 5721 5722 5723 5723 5724 5724 5723 5722 5722 5721 5720 5720 5719 5717 5713
5756 5766 5761 5754 5743 5733 5736 5726 5737 5754 5756 5764 5767 5766 5766 5765 5762 5760 5757 5754 5751 5748 5744 5740 5737 5734 5731 5728 5726 5724 5722 5720 5721 5721 5721 5721 5721 5723 5723 5723 5723 5722 5722 5721 5720 5719 5719 5718 5715
5768 5757 5746 5733 5726 5716 5730 5724 5729 5745 5757 5763 5766 5767 5766 5765 5764 5761 5758 5754 5752 5749 5745 5741 5737 5734 5732 5729 5728 5726 5723 5721 5720 5720 5719 5720 5720 5721 5722 5722 5722 5722 5721 5721 5720 5719 5718 5717 5716
5759 5732 5709 5710 5700 5706 5726 5724 5731 5759 5767 5768 5767 5766 5766 5765 5763 5760 5756 5753 5750 5747 5745 5742 5738 5735 5733 5731 5729 5727 5725 5723 5722 5721 5720 5720 5719 5720 5721 5721 5721 5721 5720 5720 5719 5718 5717 5716 5715
5746 5735 5709 5700 5698 5706 5722 5721 5744 5767 5772 5773 5771 5769 5766 5764 5762 5760 5758 5755 5752 5749 5746 5742 5739 5736 5734 5732 5729 5728 5726 5725 5723 5723 5722 5722 5721 5722 5721 5721 5720 5720 5719 5719 5718 5716 5715 5714 5714
5741 5733 5738 5713 5707 5704 5712 5728 5750 5767 5767 5768 5767 5766 5764 5764 5763 5761 5759 5756 5752 5749 5747 5744 5740 5737 5734 5732 5730 5728 5726 5725 5723 5723 5723 5722 5722 5722 5721 5720 5719 5718 5717 5717 5715 5714 5713 5712 5711
5757 5740 5720 5708 5695 5696 5712 5722 5731 5754 5759 5762 5762 5763 5764 5763 5763 5762 5759 5756 5752 5749 5747 5744 5741 5738 5735 5733 5730 5729 5727 5725 5724 5723 5722 5722 5722 5722 5720 5719 5718 5716 5715 5714 5713 5711 5710 5709 5708
5743 5736 5723 5708 5708 5696 5698 5717 5752 5756 5760 5760 5762 5764 5764 5764 5763 5761 5759 5755 5752 5748 5746 5743 5740 5737 5734 5732 5730 5728 5726 5725 5723 5722 5722 5722 5721 5720 5719 5718 5716 5714 5713 5711 5709 5708 5707 5705 5704
5754 5741 5727 5716 5708 5704 5703 5721 5764 5761 5762 5762 5763 5765 5765 5764 5763 5761 5758 5754 5750 5747 5745 5742 5740 5737 5735 5733 5730 5727 5725 5723 5722 5721 5721 5720 5719 5719 5717 5715 5713 5712 5710 5708 5706 5704 5703 5701 5700